{"data":{"norad_id":57521,"epoch":"2026-09-20T05:35:11.524128Z","epoch_age_seconds":168082,"freshness":"FRESH","line1":"1 57521U 23115A   26263.23277227 -.00000745  00000+0 -17550-4 0  9992","line2":"2 57521  43.0034 342.9655 0001546 264.0794  95.9881 15.27567311173322","mean_motion":15.27567311,"eccentricity":0.0001546,"inclination_deg":43.0034,"raan_deg":342.9655,"arg_perigee_deg":264.0794,"mean_anomaly_deg":95.9881,"bstar":-1.755e-5,"rev_number":17332,"period_min":94.267531756576,"perigee_km":482.02634648893,"apogee_km":484.14783697809,"semimajor_km":6861.2240917335,"source":"CELESTRAK","updated_at":"2026-09-21T09:00:33.636582Z"}}